Location: Nelson
(41.2830°S, 173.2830°E)
Time: 12:23:17
(UTC+13:00)

Radarsat Rocket - Pass Details

Date: 06 October 2021
Orbit: 933 x 1492 km, 100.6° (Epoch: 27 October)

Event Time Altitude Azimuth Distance (km) Brightness Sun altitude
Rises 04:57:38 0° 70° (ENE) 4,616 8.1 -21.4°
Reaches altitude 10° 05:01:26 10° 85° (E) 3,616 7.8 -20.8°
Maximum altitude 05:07:03 20° 127° (SE) 2,845 7.3 -19.9°
Drops below altitude 10° 05:12:26 10° 169° (S) 3,452 7.3 -18.9°
Sets 05:15:56 0° 184° (S) 4,345 7.7 -18.3°
